sat.trackr.live / text

‹ back to catalog

SENTINEL-1A

NORAD 39634 · 2014-016A

PAYLOAD ACTIVE UNKNOWN

§ Identity

Operator
Country
ESA
Launch date
2014-04-03
Launch site
FRGUI
Launch vehicle
Mass (kg)
RCS (m²)
4.97

Purposes: earth_obs

External: N2YO · Heavens-Above · Gunter

§ Orbital elements

Epoch: 2026-09-13T04:40:13.110816Z

Period
98.64 min
Inclination
98.1586°
Eccentricity
0.0001435
Mean motion
14.59804745 rev/d
Perigee alt
692.8 km
Apogee alt
694.8 km
Semi-major
7,071.9 km
B*
3.8610e-5
RAAN
262.3516°
Arg perigee
84.3676°
Mean anomaly
275.7688°
Rev number
66,285

§ Raw data

SENTINEL-1A1 39634U 14016A   26256.19459619  .00000139  00000+0  38610-4 0  99962 39634  98.1586 262.3516 0001435  84.3676 275.7688 14.59804745662853

JSON: /api/v1/satellites/39634 · /tle

For live sub-satellite position, see the globe view (requires WebGL).

§ Visibility from observer

Set your observer location to see the next 7 days of passes ≥ 10°. The values pass through the URL so the page stays shareable.

No JS? Fill the form by hand. The geolocation button needs JavaScript.